Voltar ao catálogo

NAVSTAR 53

USA 175

AtivoNavegaçãoMEO
NORAD 28129·PAYLOAD·🇺🇸 United States

Lançado Dec 21, 2003 de Cape Canaveral Space Force Station

Loading…

Próximas Passagens (próximas 24 horas)

TLE

AtualizadoSource: Space-Track

Época: Sep 14, 2026, 07:31 UTC

1 28129U 03058A   26257.31384955 -.00000105  00000-0  00000+0 0  9994
2 28129  55.0765  19.9753 0000920 282.1273  77.8641  1.92678495166188

Acompanhe NAVSTAR 53 em tempo real com AllMySat

Download on the App Store